Location: Tyler Bend Campground
(35.9875°N, 92.7606°W)
Time: 11:56:07
(UTC-05:00)

CZ-2C R/B - Visible Passes

Search period start: 29 August 2015 00:00
Search period end: 08 September 2015 00:00
Orbit: 670 x 785 km, 98.1° (Epoch: 28 August)

Date Brightness Start Highest point End Pass type
(mag) Time Alt. Az. Time Alt. Az. Time Alt. Az.
30 Aug 4.8 20:32:50 10° SSW 20:37:01 26° W 20:41:13 10° NW visible
01 Sep 4.9 20:35:38 10° SSW 20:39:45 24° W 20:43:50 10° NW visible
03 Sep 5.0 20:38:28 10° SW 20:42:30 23° W 20:46:28 10° NW visible
05 Sep 5.1 20:41:19 10° SW 20:45:15 21° W 20:49:05 10° NW visible
06 Sep 3.1 19:52:07 10° S 19:57:11 65° W 20:02:21 10° NNW visible
07 Sep 5.2 20:44:11 10° SW 20:48:00 20° W 20:51:40 10° NW visible
